Location: Newark
(45.5000°N, 11.4167°E)
Time: 08:41:21
(UTC+00:00)

Explorer 11/Cluster Stage 4 - Pass Details

Date: 19 August 2019
Orbit: 467 x 1259 km, 28.8° (Epoch: 15 October)

Event Time Altitude Azimuth Distance (km) Brightness Sun altitude
Rises 10:20:52 0° 205° (SSW) 4,191 10.6 55.1°
Reaches altitude 10° 10:26:26 10° 176° (S) 3,176 10.4 55.5°
Maximum altitude 10:28:49 12° 159° (SSE) 3,017 10.4 55.7°
Drops below altitude 10° 10:31:08 10° 141° (SE) 3,080 10.3 55.8°
Sets 10:36:15 0° 111° (ESE) 3,881 10.4 56.1°
